User: anonymous   Login
Location: Bambrugge
(50.9212°N, 3.9299°E)
Time: 16:32:45
(UTC+00:00)
Language:

Cosmos 1763 Rocket - Orbit

View from above orbital plane
View from above orbital plane
View from above satellite
View from above satellite

Ground track
Ground track

The orbit data is extracted from the following two-line orbital elements,

1 16864U 86052B   24207.38036249  .00000854  00000-0  26974-3 0  9994
2 16864  74.0309 330.9796 0032075 153.8101 206.4686 14.41453897996667
Epoch (UTC): 25 July 2024 09:07:43
Eccentricity: 0.0032075
inclination: 74.0309°
perigee height: 731 km
apogee height: 776 km
right ascension of ascending node: 330.9796°
argument of perigee: 153.8101°
revolutions per day: 14.41453897
mean anomaly at epoch: 206.4686°
orbit number at epoch: 99666

The dashed part of the orbit path shows where the satellite is in the earth's shadow,  

DLR